Flag Weather past 2 weeks in Uppsala, Sweden

Now
37 °F

Broken clouds.


Feels Like: 34 °F
Forecast: 38 / 45 °F
Wind: 5 mph from Southeast

Location: Stockholm / Arlanda

Current Time: Nov 23, 2014 at 11:25:40 AM

Latest Report: Nov 23, 2014 at 10:50 AM


Visibility: N/A

Pressure: 30.42 "Hg

Humidity: 100%

Dew point: 37 °F

Location of UppsalaLocation

Historic Weather in Uppsala — Graph

°F

Uppsala temperature yesterday

Maximum temperature yesterday: 37 °F (at 1:20 PM)
Minimum temperature yesterday: 34 °F (at 1:20 AM)
Average temperature yesterday: 35 °F

Past Weeks' High & Low Weather Summary

 TemperatureHumidityPressure
High50 °F (Nov 11, 11:50 AM)100% (Nov 8, 10:20 AM)30.48 "Hg (Nov 8, 10:20 AM)
Low34 °F (Nov 8, 10:20 AM)61% (Nov 18, 6:50 PM)29.77 "Hg (Nov 10, 10:20 PM)
Average41 °F91%30.21 "Hg
* Reported Nov 8 10:20 AM — Nov 23 10:20 AM, Uppsala, Weather by CustomWeather, © 2014

Note: Actual official high and low records may vary slightly from our data, if they occured in-between our weather recording intervals... More about our weather records

Advertising

Uppsala weather history for previous 24 hours

 ConditionsComfort  
Time TempWeatherWind HumidityBarometerVisibility
10:20 AM
Nov 23
37 °FPartly sunny.5 mph100%30.42 "HgN/A
9:50 AM37 °FPartly sunny.7 mph100%30.42 "HgN/A
9:20 AM37 °FPartly sunny.6 mph100%30.42 "HgN/A
8:50 AM37 °FPartly sunny.6 mph100%30.42 "HgN/A
8:20 AM37 °FPartly sunny.5 mph93%30.42 "HgN/A
7:50 AM37 °FPassing clouds.5 mph93%30.42 "HgN/A
7:20 AM36 °FPassing clouds.5 mph100%30.39 "HgN/A
6:50 AM36 °FPartly cloudy.6 mph100%30.39 "HgN/A
6:20 AM36 °FPartly cloudy.6 mph100%30.39 "HgN/A
5:50 AM36 °FFog.5 mph100%30.39 "Hg6 mi
5:20 AM36 °FFog.5 mph100%30.39 "Hg6 mi
4:50 AM36 °FFog.3 mph100%30.39 "Hg5 mi
4:20 AM36 °FFog.3 mph100%30.39 "Hg5 mi
3:50 AM36 °FFog.2 mph100%30.39 "Hg5 mi
3:20 AM36 °FFog.2 mph100%30.39 "Hg6 mi
2:50 AM36 °FPassing clouds.2 mph100%30.39 "HgN/A
2:20 AM36 °FPassing clouds.2 mph100%30.36 "HgN/A
1:50 AM36 °FPassing clouds.2 mph100%30.36 "HgN/A
1:20 AM36 °FFog.2 mph100%30.36 "Hg6 mi
12:50 AM36 °FFog.3 mph100%30.36 "Hg4 mi
12:20 AM36 °FFog.3 mph100%30.36 "Hg5 mi
11:50 PM
Nov 22
36 °FFog.2 mph100%30.36 "Hg4 mi
11:20 PM36 °FFog.No wind100%30.36 "Hg5 mi
10:50 PM36 °FFog.2 mph100%30.36 "Hg4 mi
10:20 PM36 °FFog.2 mph100%30.36 "Hg6 mi
9:50 PM36 °FFog.2 mph100%30.36 "Hg5 mi
9:20 PM36 °FPassing clouds.3 mph100%30.33 "HgN/A
8:50 PM36 °FFog.2 mph100%30.33 "Hg5 mi
8:20 PM36 °FPassing clouds.2 mph100%30.33 "HgN/A
7:50 PM36 °FPassing clouds.2 mph100%30.30 "HgN/A
7:20 PM36 °FPassing clouds.2 mph100%30.33 "HgN/A
6:50 PM36 °FPassing clouds.3 mph100%30.30 "HgN/A
6:20 PM36 °FPassing clouds.3 mph100%30.30 "HgN/A
5:50 PM36 °FPartly cloudy.3 mph100%30.30 "HgN/A
5:20 PM36 °FPartly cloudy.3 mph100%30.30 "HgN/A
4:50 PM36 °FPassing clouds.3 mph100%30.30 "HgN/A
4:20 PM36 °FPassing clouds.5 mph100%30.30 "HgN/A
3:50 PM36 °FPassing clouds.3 mph100%30.30 "HgN/A
3:20 PM36 °FPassing clouds.3 mph100%30.30 "HgN/A
2:50 PM36 °FPartly sunny.5 mph100%30.30 "HgN/A
2:20 PM36 °FBroken clouds.6 mph100%30.30 "HgN/A
1:50 PM36 °FPartly sunny.6 mph100%30.30 "HgN/A
1:20 PM37 °FPartly sunny.5 mph93%30.30 "HgN/A
12:50 PM36 °FMostly cloudy.8 mph100%30.30 "HgN/A
12:20 PM36 °FMostly cloudy.8 mph100%30.30 "HgN/A
11:50 AM36 °FPartly sunny.6 mph100%30.30 "HgN/A
11:20 AM36 °FPartly sunny.6 mph100%30.30 "HgN/A
Weather by CustomWeather, © 2014

See weather overviewHow to use our weather pages